Date,TemperatureHighF,TemperatureAvgF,TemperatureLowF,DewpointHighF,DewpointAvgF,DewpointLowF,HumidityHigh,HumidityAvg,HumidityLow,PressureMaxIn,PressureMinIn,WindSpeedMaxMPH,WindSpeedAvgMPH,GustSpeedMaxMPH,PrecipitationSumIn
2013-2-1,34.6,28.3,21.4,17.0,7.2,2.6,60,41,28,30.03,29.54,15,3,23,0.00
2013-2-2,29.3,23.8,15.9,10.1,5.0,0.6,58,45,33,30.21,30.01,12,2,14,0.00
2013-2-3,26.1,24.2,20.6,21.1,18.3,9.7,86,79,50,30.02,29.69,8,1,8,0.00
2013-2-4,30.7,23.5,16.7,19.3,9.7,2.4,87,58,35,29.89,29.67,17,2,21,0.01
2013-2-5,28.4,24.3,19.7,22.0,11.3,5.5,86,58,43,29.98,29.90,8,1,10,0.00
2013-2-6,38.6,29.4,23.2,24.4,17.7,3.8,90,64,37,30.24,29.88,9,1,21,0.02
2013-2-7,29.0,23.0,13.5,9.1,2.2,-3.0,66,42,27,30.49,30.25,9,2,15,0.00
2013-2-8,32.2,27.6,17.3,30.4,23.0,8.9,96,84,49,30.45,29.58,15,4,29,0.00
2013-2-9,19.9,17.4,12.9,17.4,14.2,7.9,90,87,80,30.14,29.54,17,7,30,0.00
2013-2-10,32.8,18.0,2.8,20.6,10.6,-2.0,83,73,43,30.36,30.15,9,1,15,0.01
2013-2-11,40.3,28.7,10.2,39.5,25.8,6.0,98,89,65,30.32,29.57,4,0,11,0.20
2013-2-12,44.6,37.6,30.1,35.3,27.9,24.0,98,69,48,29.83,29.57,13,2,32,0.01
2013-2-13,42.3,32.7,23.0,26.9,23.3,18.9,86,70,46,29.82,29.66,7,1,12,0.00
2013-2-14,43.1,34.1,25.8,26.6,22.3,18.4,83,64,38,29.95,29.67,7,1,12,0.00
2013-2-15,50.8,37.4,24.8,34.0,28.8,20.2,93,73,47,29.96,29.86,12,2,18,0.00
2013-2-16,38.2,33.7,27.9,31.2,25.5,15.5,94,73,51,29.91,29.68,9,2,16,0.03
2013-2-17,29.5,21.2,16.9,17.7,9.6,-1.0,87,63,40,29.68,29.34,25,6,25,0.00
2013-2-18,30.9,22.1,13.6,4.5,-0.5,-5.0,51,37,21,30.11,29.62,14,3,26,0.00
2013-2-19,46.7,35.3,20.2,41.1,22.6,0.8,97,62,37,30.12,29.54,13,1,16,0.38
2013-2-20,39.6,32.0,25.6,39.0,19.4,9.7,97,61,39,29.73,29.49,21,2,22,0.00
2013-2-21,32.2,27.0,23.3,14.1,11.8,8.2,65,53,40,30.13,29.72,16,4,22,0.00
2013-2-22,39.3,31.2,21.6,25.0,19.4,14.1,79,63,42,30.35,30.15,11,2,15,0.00
2013-2-23,38.0,33.4,27.3,31.4,27.7,22.1,95,80,67,30.30,29.89,10,1,13,0.01
2013-2-24,36.3,33.5,30.4,35.5,32.3,29.1,97,96,94,29.89,29.66,8,2,18,0.57
2013-2-25,40.1,34.1,29.5,31.7,29.1,25.5,95,83,63,30.20,29.85,5,1,8,0.19
2013-2-26,42.6,35.2,26.1,32.5,27.9,24.3,96,76,53,30.30,30.13,11,2,15,0.00
2013-2-27,40.6,38.7,37.0,39.2,36.6,29.3,97,92,73,30.13,29.52,26,6,31,1.54
2013-2-28,46.2,37.2,33.4,36.5,34.0,31.1,97,89,66,29.60,29.49,5,0,9,0.00